Year,Month,Day,Hour,Minute,Value (Times are PST for temperature in C)
2017,06,23,00,00,14.30
2017,06,23,00,01,14.30
2017,06,23,00,02,14.30
2017,06,23,00,03,14.40
2017,06,23,00,04,14.70
2017,06,23,00,05,14.80
2017,06,23,00,06,15.00
2017,06,23,00,07,15.20
2017,06,23,00,08,15.20
2017,06,23,00,09,15.20
2017,06,23,00,10,15.20
2017,06,23,00,11,15.10
2017,06,23,00,12,15.00
2017,06,23,00,13,15.00
2017,06,23,00,14,15.00
2017,06,23,00,15,15.10
2017,06,23,00,16,15.20
2017,06,23,00,17,15.20
2017,06,23,00,18,15.30
2017,06,23,00,19,15.30
2017,06,23,00,20,15.40
2017,06,23,00,21,15.40
2017,06,23,00,22,15.40
2017,06,23,00,23,15.40
2017,06,23,00,24,15.40
2017,06,23,00,25,15.40
2017,06,23,00,26,15.40
2017,06,23,00,27,15.40
2017,06,23,00,28,15.40
2017,06,23,00,29,15.40
2017,06,23,00,30,15.40
2017,06,23,00,31,15.40
2017,06,23,00,32,15.40
2017,06,23,00,33,15.40
2017,06,23,00,34,15.40
2017,06,23,00,35,15.40
2017,06,23,00,36,15.40
2017,06,23,00,37,15.30
2017,06,23,00,38,15.30
2017,06,23,00,39,15.30
2017,06,23,00,40,15.30
2017,06,23,00,41,15.30
2017,06,23,00,42,15.30
2017,06,23,00,43,15.30
2017,06,23,00,44,15.30
2017,06,23,00,45,15.20
2017,06,23,00,46,15.20
2017,06,23,00,47,15.20
2017,06,23,00,48,15.20
2017,06,23,00,49,15.20
2017,06,23,00,50,15.20
2017,06,23,00,51,15.20
2017,06,23,00,52,15.20
2017,06,23,00,53,15.20
2017,06,23,00,54,15.20
2017,06,23,00,55,15.20
2017,06,23,00,56,15.30
2017,06,23,00,57,15.30
2017,06,23,00,58,15.30
2017,06,23,00,59,15.30
2017,06,23,01,00,15.30
2017,06,23,01,01,15.30
2017,06,23,01,02,15.30
2017,06,23,01,03,15.40
2017,06,23,01,04,15.40
2017,06,23,01,05,15.40
2017,06,23,01,06,15.40
2017,06,23,01,07,15.40
2017,06,23,01,08,15.30
2017,06,23,01,09,15.30
2017,06,23,01,10,15.30
2017,06,23,01,11,15.30
2017,06,23,01,12,15.30
2017,06,23,01,13,15.30
2017,06,23,01,14,15.30
2017,06,23,01,15,15.30
2017,06,23,01,16,15.30
2017,06,23,01,17,15.30
2017,06,23,01,18,15.30
2017,06,23,01,19,15.30
2017,06,23,01,20,15.30
2017,06,23,01,21,15.30
2017,06,23,01,22,15.30
2017,06,23,01,23,15.30
2017,06,23,01,24,15.30
2017,06,23,01,25,15.20
2017,06,23,01,26,15.20
2017,06,23,01,27,15.20
2017,06,23,01,28,15.10
2017,06,23,01,29,15.20
2017,06,23,01,30,15.20
2017,06,23,01,31,15.20
2017,06,23,01,32,15.20
2017,06,23,01,33,15.20
2017,06,23,01,34,15.20
2017,06,23,01,35,15.20
2017,06,23,01,36,15.20
2017,06,23,01,37,15.10
2017,06,23,01,38,15.10
2017,06,23,01,39,15.20
2017,06,23,01,40,15.20
2017,06,23,01,41,15.20
2017,06,23,01,42,15.20
2017,06,23,01,43,15.20
2017,06,23,01,44,15.10
2017,06,23,01,45,15.10
2017,06,23,01,46,15.10
2017,06,23,01,47,15.20
2017,06,23,01,48,15.20
2017,06,23,01,49,15.20
2017,06,23,01,50,15.20
2017,06,23,01,51,15.10
2017,06,23,01,52,15.10
2017,06,23,01,53,15.20
2017,06,23,01,54,15.20
2017,06,23,01,55,15.20
2017,06,23,01,56,15.20
2017,06,23,01,57,15.30
2017,06,23,01,58,15.30
2017,06,23,01,59,15.30
2017,06,23,02,00,15.30
2017,06,23,02,01,15.20
2017,06,23,02,02,15.20
2017,06,23,02,03,15.10
2017,06,23,02,04,15.10
2017,06,23,02,05,15.00
2017,06,23,02,06,15.00
2017,06,23,02,07,15.00
2017,06,23,02,08,15.00
2017,06,23,02,09,14.90
2017,06,23,02,10,14.90
2017,06,23,02,11,14.90
2017,06,23,02,12,14.80
2017,06,23,02,13,14.80
2017,06,23,02,14,14.70
2017,06,23,02,15,14.70
2017,06,23,02,16,14.70
2017,06,23,02,17,14.80
2017,06,23,02,18,14.80
2017,06,23,02,19,14.80
2017,06,23,02,20,14.90
2017,06,23,02,21,14.90
2017,06,23,02,22,14.90
2017,06,23,02,23,14.90
2017,06,23,02,24,14.90
2017,06,23,02,25,14.90
2017,06,23,02,26,14.90
2017,06,23,02,27,14.90
2017,06,23,02,28,14.90
2017,06,23,02,29,14.80
2017,06,23,02,30,14.80
2017,06,23,02,31,14.80
2017,06,23,02,32,14.80
2017,06,23,02,33,14.80
2017,06,23,02,34,14.80
2017,06,23,02,35,14.70
2017,06,23,02,36,14.70
2017,06,23,02,37,14.70
2017,06,23,02,38,14.70
2017,06,23,02,39,14.70
2017,06,23,02,40,14.70
2017,06,23,02,41,14.60
2017,06,23,02,42,14.60
2017,06,23,02,43,14.60
2017,06,23,02,44,14.60
2017,06,23,02,45,14.60
2017,06,23,02,46,14.60
2017,06,23,02,47,14.50
2017,06,23,02,48,14.40
2017,06,23,02,49,14.40
2017,06,23,02,50,14.40
2017,06,23,02,51,14.50
2017,06,23,02,52,14.50
2017,06,23,02,53,14.60
2017,06,23,02,54,14.60
2017,06,23,02,55,14.60
2017,06,23,02,56,14.60
2017,06,23,02,57,14.50
2017,06,23,02,58,14.50
2017,06,23,02,59,14.50
2017,06,23,03,00,14.40
2017,06,23,03,01,14.40
2017,06,23,03,02,14.40
2017,06,23,03,03,14.40
2017,06,23,03,04,14.40
2017,06,23,03,05,14.40
2017,06,23,03,06,14.40
2017,06,23,03,07,14.40
2017,06,23,03,08,14.40
2017,06,23,03,09,14.40
2017,06,23,03,10,14.30
2017,06,23,03,11,14.30
2017,06,23,03,12,14.30
2017,06,23,03,13,14.30
2017,06,23,03,14,14.20
2017,06,23,03,15,14.20
2017,06,23,03,16,14.20
2017,06,23,03,17,14.20
2017,06,23,03,18,14.20
2017,06,23,03,19,14.20
2017,06,23,03,20,14.10
2017,06,23,03,21,14.10
2017,06,23,03,22,14.10
2017,06,23,03,23,14.10
2017,06,23,03,24,14.10
2017,06,23,03,25,14.10
2017,06,23,03,26,14.10
2017,06,23,03,27,14.00
2017,06,23,03,28,14.00
2017,06,23,03,29,14.00
2017,06,23,03,30,14.00
2017,06,23,03,31,14.00
2017,06,23,03,32,14.00
2017,06,23,03,33,13.90
2017,06,23,03,34,13.90
2017,06,23,03,35,13.90
2017,06,23,03,36,14.00
2017,06,23,03,37,14.00
2017,06,23,03,38,14.10
2017,06,23,03,39,14.10
2017,06,23,03,40,14.10
2017,06,23,03,41,14.10
2017,06,23,03,42,14.10
2017,06,23,03,43,14.20
2017,06,23,03,44,14.10
2017,06,23,03,45,14.10
2017,06,23,03,46,14.10
2017,06,23,03,47,14.10
2017,06,23,03,48,14.20
2017,06,23,03,49,14.20
2017,06,23,03,50,14.20
2017,06,23,03,51,14.30
2017,06,23,03,52,14.30
2017,06,23,03,53,14.30
2017,06,23,03,54,14.20
2017,06,23,03,55,14.20
2017,06,23,03,56,14.20
2017,06,23,03,57,14.30
2017,06,23,03,58,14.30
2017,06,23,03,59,14.30
2017,06,23,04,00,14.30
2017,06,23,04,01,14.30
2017,06,23,04,02,14.20
2017,06,23,04,03,14.20
2017,06,23,04,04,14.20
2017,06,23,04,05,14.20
2017,06,23,04,06,14.20
2017,06,23,04,07,14.20
2017,06,23,04,08,14.20
2017,06,23,04,09,14.10
2017,06,23,04,10,14.00
2017,06,23,04,11,14.00
2017,06,23,04,12,14.00
2017,06,23,04,13,14.00
2017,06,23,04,14,14.10
2017,06,23,04,15,14.20
2017,06,23,04,16,14.20
2017,06,23,04,17,14.30
2017,06,23,04,18,14.30
2017,06,23,04,19,14.30
2017,06,23,04,20,14.30
2017,06,23,04,21,14.30
2017,06,23,04,22,14.30
2017,06,23,04,23,14.30
2017,06,23,04,24,14.30
2017,06,23,04,25,14.30
2017,06,23,04,26,14.30
2017,06,23,04,27,14.30
2017,06,23,04,28,14.30
2017,06,23,04,29,14.30
2017,06,23,04,30,14.30
2017,06,23,04,31,14.30
2017,06,23,04,32,14.30
2017,06,23,04,33,14.30
2017,06,23,04,34,14.30
2017,06,23,04,35,14.30
2017,06,23,04,36,14.30
2017,06,23,04,37,14.30
2017,06,23,04,38,14.30
2017,06,23,04,39,14.30
2017,06,23,04,40,14.30
2017,06,23,04,41,14.30
2017,06,23,04,42,14.30
2017,06,23,04,43,14.30
2017,06,23,04,44,14.30
2017,06,23,04,45,14.30
2017,06,23,04,46,14.30
2017,06,23,04,47,14.30
2017,06,23,04,48,14.30
2017,06,23,04,49,14.30
2017,06,23,04,50,14.30
2017,06,23,04,51,14.30
2017,06,23,04,52,14.30
2017,06,23,04,53,14.30
2017,06,23,04,54,14.30
2017,06,23,04,55,14.30
2017,06,23,04,56,14.30
2017,06,23,04,57,14.30
2017,06,23,04,58,14.40
2017,06,23,04,59,14.30
2017,06,23,05,00,14.30
2017,06,23,05,01,14.30
2017,06,23,05,02,14.30
2017,06,23,05,03,14.30
2017,06,23,05,04,14.20
2017,06,23,05,05,14.30
2017,06,23,05,06,14.30
2017,06,23,05,07,14.30
2017,06,23,05,08,14.30
2017,06,23,05,09,14.30
2017,06,23,05,10,14.30
2017,06,23,05,11,14.30
2017,06,23,05,12,14.30
2017,06,23,05,13,14.30
2017,06,23,05,14,14.30
2017,06,23,05,15,14.20
2017,06,23,05,16,14.20
2017,06,23,05,17,14.20
2017,06,23,05,18,14.20
2017,06,23,05,19,14.20
2017,06,23,05,20,14.20
2017,06,23,05,21,14.20
2017,06,23,05,22,14.20
2017,06,23,05,23,14.30
2017,06,23,05,24,14.30
2017,06,23,05,25,14.30
2017,06,23,05,26,14.40
2017,06,23,05,27,14.40
2017,06,23,05,28,14.40
2017,06,23,05,29,14.40
2017,06,23,05,30,14.40
2017,06,23,05,31,14.30
2017,06,23,05,32,14.30
2017,06,23,05,33,14.30
2017,06,23,05,34,14.30
2017,06,23,05,35,14.20
2017,06,23,05,36,14.20
2017,06,23,05,37,14.20
2017,06,23,05,38,14.20
2017,06,23,05,39,14.20
2017,06,23,05,40,14.20
2017,06,23,05,41,14.20
2017,06,23,05,42,14.10
2017,06,23,05,43,14.10
2017,06,23,05,44,14.10
2017,06,23,05,45,14.10
2017,06,23,05,46,14.00
2017,06,23,05,47,14.00
2017,06,23,05,48,14.00
2017,06,23,05,49,13.90
2017,06,23,05,50,13.90
2017,06,23,05,51,13.80
2017,06,23,05,52,13.80
2017,06,23,05,53,13.80
2017,06,23,05,54,13.90
2017,06,23,05,55,13.90
2017,06,23,05,56,13.90
2017,06,23,05,57,13.90
2017,06,23,05,58,13.90
2017,06,23,05,59,13.90
2017,06,23,06,00,13.90
2017,06,23,06,01,13.90
2017,06,23,06,02,13.80
2017,06,23,06,03,13.80
2017,06,23,06,04,13.80
2017,06,23,06,05,13.80
2017,06,23,06,06,13.90
2017,06,23,06,07,13.90
2017,06,23,06,08,13.90
2017,06,23,06,09,13.90
2017,06,23,06,10,13.90
2017,06,23,06,11,13.90
2017,06,23,06,12,14.00
2017,06,23,06,13,14.00
2017,06,23,06,14,14.10
2017,06,23,06,15,14.10
2017,06,23,06,16,14.10
2017,06,23,06,17,14.10
2017,06,23,06,18,13.90
2017,06,23,06,19,13.80
2017,06,23,06,20,13.60
2017,06,23,06,21,13.50
2017,06,23,06,22,13.30
2017,06,23,06,23,13.20
2017,06,23,06,24,13.10
2017,06,23,06,25,13.10
2017,06,23,06,26,13.20
2017,06,23,06,27,13.30
2017,06,23,06,28,13.40
2017,06,23,06,29,13.50
2017,06,23,06,30,13.60
2017,06,23,06,31,13.60
2017,06,23,06,32,13.70
2017,06,23,06,33,13.70
2017,06,23,06,34,13.80
2017,06,23,06,35,13.80
2017,06,23,06,36,13.80
2017,06,23,06,37,13.90
2017,06,23,06,38,13.90
2017,06,23,06,39,13.90
2017,06,23,06,40,13.90
2017,06,23,06,41,13.90
2017,06,23,06,42,13.90
2017,06,23,06,43,13.90
2017,06,23,06,44,13.90
2017,06,23,06,45,13.90
2017,06,23,06,46,13.90
2017,06,23,06,47,13.90
2017,06,23,06,48,13.90
2017,06,23,06,49,14.00
2017,06,23,06,50,14.00
2017,06,23,06,51,14.10
2017,06,23,06,52,14.10
2017,06,23,06,53,14.10
2017,06,23,06,54,14.10
2017,06,23,06,55,14.00
2017,06,23,06,56,14.00
2017,06,23,06,57,13.90
2017,06,23,06,58,13.90
2017,06,23,06,59,13.80
2017,06,23,07,00,13.80
2017,06,23,07,01,13.80
2017,06,23,07,02,13.80
2017,06,23,07,03,13.70
2017,06,23,07,04,13.70
2017,06,23,07,05,13.60
2017,06,23,07,06,13.60
2017,06,23,07,07,13.50
2017,06,23,07,08,13.50
2017,06,23,07,09,13.50
2017,06,23,07,10,13.50
2017,06,23,07,11,13.40
2017,06,23,07,12,13.40
2017,06,23,07,13,13.30
2017,06,23,07,14,13.20
2017,06,23,07,15,13.10
2017,06,23,07,16,13.10
2017,06,23,07,17,13.10
2017,06,23,07,18,13.10
2017,06,23,07,19,13.30
2017,06,23,07,20,13.40
2017,06,23,07,21,13.40
2017,06,23,07,22,13.50
2017,06,23,07,23,13.50
2017,06,23,07,24,13.50
2017,06,23,07,25,13.60
2017,06,23,07,26,13.50
2017,06,23,07,27,13.60
2017,06,23,07,28,13.70
2017,06,23,07,29,13.80
2017,06,23,07,30,13.90
2017,06,23,07,31,13.90
2017,06,23,07,32,13.90
2017,06,23,07,33,13.90
2017,06,23,07,34,13.80
2017,06,23,07,35,13.80
2017,06,23,07,36,13.80
2017,06,23,07,37,13.80
2017,06,23,07,38,13.80
2017,06,23,07,39,13.90
2017,06,23,07,40,13.90
2017,06,23,07,41,13.90
2017,06,23,07,42,13.90
2017,06,23,07,43,14.00
2017,06,23,07,44,14.00
2017,06,23,07,45,13.90
2017,06,23,07,46,13.80
2017,06,23,07,47,13.60
2017,06,23,07,48,13.40
2017,06,23,07,49,13.30
2017,06,23,07,50,13.10
2017,06,23,07,51,12.90
2017,06,23,07,52,12.80
2017,06,23,07,53,12.70
2017,06,23,07,54,12.60
2017,06,23,07,55,12.50
2017,06,23,07,56,12.40
2017,06,23,07,57,12.30
2017,06,23,07,58,12.20
2017,06,23,07,59,12.20
2017,06,23,08,00,12.20
2017,06,23,08,01,12.10
2017,06,23,08,02,12.10
2017,06,23,08,03,12.00
2017,06,23,08,04,12.00
2017,06,23,08,05,12.00
2017,06,23,08,06,11.90
2017,06,23,08,07,11.90
2017,06,23,08,08,11.90
2017,06,23,08,09,12.10
2017,06,23,08,10,12.30
2017,06,23,08,11,12.50
2017,06,23,08,12,12.80
2017,06,23,08,13,13.00
2017,06,23,08,14,13.20
2017,06,23,08,15,13.40
2017,06,23,08,16,13.60
2017,06,23,08,17,13.80
2017,06,23,08,18,14.00
2017,06,23,08,19,14.20
2017,06,23,08,20,14.40
2017,06,23,08,21,14.50
2017,06,23,08,22,14.70
2017,06,23,08,23,14.70
2017,06,23,08,24,14.80
2017,06,23,08,25,14.80
2017,06,23,08,26,14.90
2017,06,23,08,27,15.00
2017,06,23,08,28,15.00
2017,06,23,08,29,15.00
2017,06,23,08,30,15.00
2017,06,23,08,31,15.00
2017,06,23,08,32,15.00
2017,06,23,08,33,15.10
2017,06,23,08,34,15.00
2017,06,23,08,35,14.90
2017,06,23,08,36,14.90
2017,06,23,08,37,14.90
2017,06,23,08,38,15.00
2017,06,23,08,39,14.90
2017,06,23,08,40,14.80
2017,06,23,08,41,14.80
2017,06,23,08,42,14.80
2017,06,23,08,43,14.90
2017,06,23,08,44,14.90
2017,06,23,08,45,15.00
2017,06,23,08,46,14.90
2017,06,23,08,47,14.90
2017,06,23,08,48,14.80
2017,06,23,08,49,14.80
2017,06,23,08,50,14.90
2017,06,23,08,51,14.90
2017,06,23,08,52,14.90
2017,06,23,08,53,14.90
2017,06,23,08,54,14.80
2017,06,23,08,55,14.90
2017,06,23,08,56,14.90
2017,06,23,08,57,14.90
2017,06,23,08,58,15.10
2017,06,23,08,59,15.20
2017,06,23,09,00,15.40
2017,06,23,09,01,15.50
2017,06,23,09,02,15.60
2017,06,23,09,03,15.80
2017,06,23,09,04,15.80
2017,06,23,09,05,15.80
2017,06,23,09,06,15.90
2017,06,23,09,07,15.90
2017,06,23,09,08,15.90
2017,06,23,09,09,15.90
2017,06,23,09,10,15.90
2017,06,23,09,11,15.90
2017,06,23,09,12,15.90
2017,06,23,09,13,15.90
2017,06,23,09,14,15.90
2017,06,23,09,15,15.80
2017,06,23,09,16,15.80
2017,06,23,09,17,15.80
2017,06,23,09,18,15.80
2017,06,23,09,19,15.80
2017,06,23,09,20,15.70
2017,06,23,09,21,15.60
2017,06,23,09,22,15.70
2017,06,23,09,23,15.70
2017,06,23,09,24,15.70
2017,06,23,09,25,15.70
2017,06,23,09,26,15.60
2017,06,23,09,27,15.70
2017,06,23,09,28,15.80
2017,06,23,09,29,15.70
2017,06,23,09,30,15.80
2017,06,23,09,31,15.80
2017,06,23,09,32,15.80
2017,06,23,09,33,15.80
2017,06,23,09,34,15.80
2017,06,23,09,35,15.80
2017,06,23,09,36,15.90
2017,06,23,09,37,15.90
2017,06,23,09,38,15.80
2017,06,23,09,39,15.90
2017,06,23,09,40,16.00
2017,06,23,09,41,16.00
2017,06,23,09,42,16.00
2017,06,23,09,43,16.00
2017,06,23,09,44,16.10
2017,06,23,09,45,16.20
2017,06,23,09,46,16.20
2017,06,23,09,47,16.20
2017,06,23,09,48,16.30
2017,06,23,09,49,16.30
2017,06,23,09,50,16.30
2017,06,23,09,51,16.30
2017,06,23,09,52,16.40
2017,06,23,09,53,16.40
2017,06,23,09,54,16.50
2017,06,23,09,55,16.60
2017,06,23,09,56,16.70
2017,06,23,09,57,16.70
2017,06,23,09,58,16.80
2017,06,23,09,59,16.80
2017,06,23,10,00,16.90
2017,06,23,10,01,17.00
2017,06,23,10,02,17.10
2017,06,23,10,03,17.20
2017,06,23,10,04,17.30
2017,06,23,10,05,17.40
2017,06,23,10,06,17.40
2017,06,23,10,07,17.40
2017,06,23,10,08,17.50
2017,06,23,10,09,17.60
2017,06,23,10,10,17.60
2017,06,23,10,11,17.70
2017,06,23,10,12,17.70
2017,06,23,10,13,17.70
2017,06,23,10,14,17.70
2017,06,23,10,15,17.80
2017,06,23,10,16,17.80
2017,06,23,10,17,17.80
2017,06,23,10,18,17.90
2017,06,23,10,19,18.00
2017,06,23,10,20,18.10
2017,06,23,10,21,18.10
2017,06,23,10,22,18.10
2017,06,23,10,23,18.20
2017,06,23,10,24,18.30
2017,06,23,10,25,18.30
2017,06,23,10,26,18.40
2017,06,23,10,27,18.40
2017,06,23,10,28,18.50
2017,06,23,10,29,18.60
2017,06,23,10,30,18.60
2017,06,23,10,31,18.70
2017,06,23,10,32,18.70
2017,06,23,10,33,18.70
2017,06,23,10,34,18.80
2017,06,23,10,35,18.90
2017,06,23,10,36,19.00
2017,06,23,10,37,19.10
2017,06,23,10,38,19.20
2017,06,23,10,39,19.30
2017,06,23,10,40,19.40
2017,06,23,10,41,19.50
2017,06,23,10,42,19.70
2017,06,23,10,43,19.80
2017,06,23,10,44,20.00
2017,06,23,10,45,20.10
2017,06,23,10,46,20.30
2017,06,23,10,47,20.40
2017,06,23,10,48,20.60
2017,06,23,10,49,20.70
2017,06,23,10,50,20.80
2017,06,23,10,51,20.90
2017,06,23,10,52,21.00
2017,06,23,10,53,21.00
2017,06,23,10,54,21.10
2017,06,23,10,55,21.20
2017,06,23,10,56,21.20
2017,06,23,10,57,21.30
2017,06,23,10,58,21.40
2017,06,23,10,59,21.40
2017,06,23,11,00,21.40
2017,06,23,11,01,21.50
2017,06,23,11,02,21.50
2017,06,23,11,03,21.60
2017,06,23,11,04,21.60
2017,06,23,11,05,21.60
2017,06,23,11,06,21.70
2017,06,23,11,07,21.70
2017,06,23,11,08,21.70
2017,06,23,11,09,21.70
2017,06,23,11,10,21.70
2017,06,23,11,11,21.70
2017,06,23,11,12,21.70
2017,06,23,11,13,21.80
2017,06,23,11,14,21.90
2017,06,23,11,15,22.00
2017,06,23,11,16,22.00
2017,06,23,11,17,22.20
2017,06,23,11,18,22.20
2017,06,23,11,19,22.30
2017,06,23,11,20,22.30
2017,06,23,11,21,22.30
2017,06,23,11,22,22.40
2017,06,23,11,23,22.50
2017,06,23,11,24,22.60
2017,06,23,11,25,22.70
2017,06,23,11,26,22.70
2017,06,23,11,27,22.70
2017,06,23,11,28,22.70
2017,06,23,11,29,22.70
2017,06,23,11,30,22.70
2017,06,23,11,31,22.70
2017,06,23,11,32,22.80
2017,06,23,11,33,22.90
2017,06,23,11,34,22.90
2017,06,23,11,35,23.00
2017,06,23,11,36,23.10
2017,06,23,11,37,23.30
2017,06,23,11,38,23.40
2017,06,23,11,39,23.50
2017,06,23,11,40,23.50
2017,06,23,11,41,23.60
2017,06,23,11,42,23.70
2017,06,23,11,43,23.70
2017,06,23,11,44,23.80
2017,06,23,11,45,23.80
2017,06,23,11,46,23.80
2017,06,23,11,47,23.80
2017,06,23,11,48,23.80
2017,06,23,11,49,23.90
2017,06,23,11,50,23.90
2017,06,23,11,51,24.00
2017,06,23,11,52,24.10
2017,06,23,11,53,24.20
2017,06,23,11,54,24.30
2017,06,23,11,55,24.40
2017,06,23,11,56,24.60
2017,06,23,11,57,24.70
2017,06,23,11,58,24.80
2017,06,23,11,59,24.90
2017,06,23,12,00,25.00
2017,06,23,12,01,25.10
2017,06,23,12,02,25.20
2017,06,23,12,03,25.10
2017,06,23,12,04,25.10
2017,06,23,12,05,25.10
2017,06,23,12,06,25.10
2017,06,23,12,07,25.10
2017,06,23,12,08,25.10
2017,06,23,12,09,25.20
2017,06,23,12,10,25.20
2017,06,23,12,11,25.20
2017,06,23,12,12,25.20
2017,06,23,12,13,25.20
2017,06,23,12,14,25.20
2017,06,23,12,15,25.20
2017,06,23,12,16,25.20
2017,06,23,12,17,25.20
2017,06,23,12,18,25.20
2017,06,23,12,19,25.20
2017,06,23,12,20,25.20
2017,06,23,12,21,25.30
2017,06,23,12,22,25.30
2017,06,23,12,23,25.40
2017,06,23,12,24,25.50
2017,06,23,12,25,25.60
2017,06,23,12,26,25.70
2017,06,23,12,27,25.80
2017,06,23,12,28,25.90
2017,06,23,12,29,26.00
2017,06,23,12,30,26.10
2017,06,23,12,31,26.20
2017,06,23,12,32,26.20
2017,06,23,12,33,26.30
2017,06,23,12,34,26.30
2017,06,23,12,35,26.30
2017,06,23,12,36,26.30
2017,06,23,12,37,26.30
2017,06,23,12,38,26.30
2017,06,23,12,39,26.30
2017,06,23,12,40,26.30
2017,06,23,12,41,26.30
2017,06,23,12,42,26.30
2017,06,23,12,43,26.30
2017,06,23,12,44,26.30
2017,06,23,12,45,26.20
2017,06,23,12,46,26.10
2017,06,23,12,47,26.10
2017,06,23,12,48,26.10
2017,06,23,12,49,26.10
2017,06,23,12,50,26.20
2017,06,23,12,51,26.30
2017,06,23,12,52,26.40
2017,06,23,12,53,26.50
2017,06,23,12,54,26.60
2017,06,23,12,55,26.70
2017,06,23,12,56,26.80
2017,06,23,12,57,26.80
2017,06,23,12,58,26.80
2017,06,23,12,59,26.80
2017,06,23,13,00,26.80
2017,06,23,13,01,26.80
2017,06,23,13,02,26.80
2017,06,23,13,03,26.70
2017,06,23,13,04,26.60
2017,06,23,13,05,26.50
2017,06,23,13,06,26.50
2017,06,23,13,07,26.40
2017,06,23,13,08,26.30
2017,06,23,13,09,26.30
2017,06,23,13,10,26.20
2017,06,23,13,11,26.20
2017,06,23,13,12,26.20
2017,06,23,13,13,26.20
2017,06,23,13,14,26.20
2017,06,23,13,15,26.30
2017,06,23,13,16,26.30
2017,06,23,13,17,26.30
2017,06,23,13,18,26.20
2017,06,23,13,19,26.20
2017,06,23,13,20,26.10
2017,06,23,13,21,25.90
2017,06,23,13,22,25.80
2017,06,23,13,23,25.60
2017,06,23,13,24,25.50
2017,06,23,13,25,25.40
2017,06,23,13,26,25.40
2017,06,23,13,27,25.30
2017,06,23,13,28,25.40
2017,06,23,13,29,25.40
2017,06,23,13,30,25.50
2017,06,23,13,31,25.60
2017,06,23,13,32,25.70
2017,06,23,13,33,25.70
2017,06,23,13,34,25.60
2017,06,23,13,35,25.50
2017,06,23,13,36,25.30
2017,06,23,13,37,25.20
2017,06,23,13,38,25.10
2017,06,23,13,39,25.10
2017,06,23,13,40,25.10
2017,06,23,13,41,25.10
2017,06,23,13,42,25.10
2017,06,23,13,43,25.10
2017,06,23,13,44,25.00
2017,06,23,13,45,25.00
2017,06,23,13,46,24.90
2017,06,23,13,47,24.90
2017,06,23,13,48,24.90
2017,06,23,13,49,24.90
2017,06,23,13,50,24.90
2017,06,23,13,51,24.90
2017,06,23,13,52,24.90
2017,06,23,13,53,24.90
2017,06,23,13,54,24.90
2017,06,23,13,55,25.00
2017,06,23,13,56,25.00
2017,06,23,13,57,25.10
2017,06,23,13,58,25.10
2017,06,23,13,59,25.20
2017,06,23,14,00,25.20
2017,06,23,14,01,25.20
2017,06,23,14,02,25.20
2017,06,23,14,03,25.20
2017,06,23,14,04,25.20
2017,06,23,14,05,25.30
2017,06,23,14,06,25.30
2017,06,23,14,07,25.30
2017,06,23,14,08,25.20
2017,06,23,14,09,25.10
2017,06,23,14,10,25.10
2017,06,23,14,11,25.10
2017,06,23,14,12,25.10
2017,06,23,14,13,25.00
2017,06,23,14,14,25.00
2017,06,23,14,15,25.00
2017,06,23,14,16,25.00
2017,06,23,14,17,25.00
2017,06,23,14,18,25.10
2017,06,23,14,19,25.10
2017,06,23,14,20,25.20
2017,06,23,14,21,25.20
2017,06,23,14,22,25.30
2017,06,23,14,23,25.40
2017,06,23,14,24,25.50
2017,06,23,14,25,25.60
2017,06,23,14,26,25.70
2017,06,23,14,27,25.70
2017,06,23,14,28,25.70
2017,06,23,14,29,25.70
2017,06,23,14,30,25.70
2017,06,23,14,31,25.70
2017,06,23,14,32,25.80
2017,06,23,14,33,25.80
2017,06,23,14,34,25.60
2017,06,23,14,35,25.50
2017,06,23,14,36,25.40
2017,06,23,14,37,25.30
2017,06,23,14,38,25.30
2017,06,23,14,39,25.30
2017,06,23,14,40,25.30
2017,06,23,14,41,25.30
2017,06,23,14,42,25.20
2017,06,23,14,43,25.20
2017,06,23,14,44,25.20
2017,06,23,14,45,25.10
2017,06,23,14,46,25.00
2017,06,23,14,47,25.00
2017,06,23,14,48,24.90
2017,06,23,14,49,24.90
2017,06,23,14,50,24.80
2017,06,23,14,51,24.80
2017,06,23,14,52,24.90
2017,06,23,14,53,24.90
2017,06,23,14,54,24.90
2017,06,23,14,55,25.00
2017,06,23,14,56,25.00
2017,06,23,14,57,25.10
2017,06,23,14,58,25.20
2017,06,23,14,59,25.20
2017,06,23,15,00,25.20
2017,06,23,15,01,25.20
2017,06,23,15,02,25.20
2017,06,23,15,03,25.20
2017,06,23,15,04,25.20
2017,06,23,15,05,25.20
2017,06,23,15,06,25.20
2017,06,23,15,07,25.20
2017,06,23,15,08,25.20
2017,06,23,15,09,25.30
2017,06,23,15,10,25.30
2017,06,23,15,11,25.40
2017,06,23,15,12,25.40
2017,06,23,15,13,25.50
2017,06,23,15,14,25.60
2017,06,23,15,15,25.70
2017,06,23,15,16,25.70
2017,06,23,15,17,25.80
2017,06,23,15,18,25.80
2017,06,23,15,19,25.90
2017,06,23,15,20,26.00
2017,06,23,15,21,26.10
2017,06,23,15,22,26.20
2017,06,23,15,23,26.30
2017,06,23,15,24,26.30
2017,06,23,15,25,26.40
2017,06,23,15,26,26.50
2017,06,23,15,27,26.50
2017,06,23,15,28,26.60
2017,06,23,15,29,26.70
2017,06,23,15,30,26.70
2017,06,23,15,31,26.80
2017,06,23,15,32,26.80
2017,06,23,15,33,26.90
2017,06,23,15,34,26.90
2017,06,23,15,35,26.90
2017,06,23,15,36,26.90
2017,06,23,15,37,26.90
2017,06,23,15,38,26.90
2017,06,23,15,39,26.90
2017,06,23,15,40,26.90
2017,06,23,15,41,26.90
2017,06,23,15,42,26.80
2017,06,23,15,43,26.80
2017,06,23,15,44,26.90
2017,06,23,15,45,26.80
2017,06,23,15,46,26.80
2017,06,23,15,47,26.80
2017,06,23,15,48,26.80
2017,06,23,15,49,26.80
2017,06,23,15,50,26.70
2017,06,23,15,51,26.70
2017,06,23,15,52,26.80
2017,06,23,15,53,26.80
2017,06,23,15,54,26.70
2017,06,23,15,55,26.70
2017,06,23,15,56,26.80
2017,06,23,15,57,26.80
2017,06,23,15,58,26.80
2017,06,23,15,59,26.80
2017,06,23,16,00,26.70
2017,06,23,16,01,26.60
2017,06,23,16,02,26.40
2017,06,23,16,03,26.40
2017,06,23,16,04,26.40
2017,06,23,16,05,26.40
2017,06,23,16,06,26.30
2017,06,23,16,07,26.10
2017,06,23,16,08,26.00
2017,06,23,16,09,25.90
2017,06,23,16,10,25.80
2017,06,23,16,11,25.70
2017,06,23,16,12,25.70
2017,06,23,16,13,25.70
2017,06,23,16,14,25.70
2017,06,23,16,15,25.70
2017,06,23,16,16,25.80
2017,06,23,16,17,25.90
2017,06,23,16,18,25.90
2017,06,23,16,19,25.90
2017,06,23,16,20,25.90
2017,06,23,16,21,25.90
2017,06,23,16,22,25.80
2017,06,23,16,23,25.70
2017,06,23,16,24,25.70
2017,06,23,16,25,25.60
2017,06,23,16,26,25.60
2017,06,23,16,27,25.60
2017,06,23,16,28,25.60
2017,06,23,16,29,25.70
2017,06,23,16,30,25.70
2017,06,23,16,31,25.70
2017,06,23,16,32,25.80
2017,06,23,16,33,25.90
2017,06,23,16,34,25.90
2017,06,23,16,35,25.90
2017,06,23,16,36,25.90
2017,06,23,16,37,25.80
2017,06,23,16,38,25.80
2017,06,23,16,39,25.80
2017,06,23,16,40,25.80
2017,06,23,16,41,25.90
2017,06,23,16,42,25.90
2017,06,23,16,43,26.00
2017,06,23,16,44,26.00
2017,06,23,16,45,26.00
2017,06,23,16,46,26.00
2017,06,23,16,47,26.00
2017,06,23,16,48,25.90
2017,06,23,16,49,25.90
2017,06,23,16,50,25.90
2017,06,23,16,51,25.90
2017,06,23,16,52,25.80
2017,06,23,16,53,25.70
2017,06,23,16,54,25.60
2017,06,23,16,55,25.50
2017,06,23,16,56,25.40
2017,06,23,16,57,25.30
2017,06,23,16,58,25.30
2017,06,23,16,59,25.30
2017,06,23,17,00,25.20
2017,06,23,17,01,25.20
2017,06,23,17,02,25.20
2017,06,23,17,03,25.30
2017,06,23,17,04,25.30
2017,06,23,17,05,25.30
2017,06,23,17,06,25.30
2017,06,23,17,07,25.30
2017,06,23,17,08,25.30
2017,06,23,17,09,25.30
2017,06,23,17,10,25.30
2017,06,23,17,11,25.30
2017,06,23,17,12,25.30
2017,06,23,17,13,25.30
2017,06,23,17,14,25.20
2017,06,23,17,15,25.20
2017,06,23,17,16,25.10
2017,06,23,17,17,25.10
2017,06,23,17,18,25.10
2017,06,23,17,19,25.10